This demonstration page uses our WeatherBlox Daily Observations layout. Learn more.

Left ArrowRight Arrow

Hourly Observations for December 8, 2016

Temp ( °F °C ) Dew Point ( °F °C ) Humidity (%) Winds ( mph kmh ) Pressure ( in mb ) Visibility ( mi km ) Precip ( " mm )
12:51 am 00:51 Clear 43 6.1 33 0.6 68 68 Calm 30.06 1018 10 16 0.00 0.00
1:51 am 01:51 Clear 40 4.4 32 0 73 73 Calm 30.09 1019 10 16 0.00 0.00
2:51 am 02:51 Clear 38 3.3 31 -0.6 76 76 Calm 30.10 1019 10 16 0.00 0.00
3:51 am 03:51 Clear 36 2.2 30 -1.1 79 79 Calm 30.11 1020 10 16 0.00 0.00
4:51 am 04:51 Clear 37 2.8 31 -0.6 79 79 NNE 5 7 30.12 1020 10 16 0.00 0.00
5:51 am 05:51 Clear 35 1.7 30 -1.1 82 82 S 3 6 30.14 1021 10 16 0.00 0.00
6:51 am 06:51 Clear 34 1.1 30 -1.1 85 85 Calm 30.18 1022 10 16 0.00 0.00
7:51 am 07:51 Mostly Sunny 37 2.8 31 -0.6 79 79 Calm 30.20 1023 10 16 0.00 0.00
8:51 am 08:51 Mostly Sunny 46 7.8 32 0 58 58 SE 7 11 30.22 1024 10 16 0.00 0.00
9:51 am 09:51 Partly Cloudy 51 10.6 31 -0.6 46 46 SE 10 17 30.24 1024 10 16 0.00 0.00
10:51 am 10:51 Sunny 54 12.2 32 0 43 43 SE 7 11 30.24 1024 10 16 0.00 0.00
11:51 am 11:51 Sunny 58 14.4 33 0.6 39 39 S 8 13 30.20 1023 10 16 0.00 0.00
12:51 pm 12:51 Sunny 60 15.6 32 0 35 35 SSE 7 11 30.17 1022 10 16 0.00 0.00
1:51 pm 13:51 Sunny 62 16.7 32 0 32 32 VRB 6 9 30.16 1021 10 16 0.00 0.00
2:51 pm 14:51 Sunny 63 17.2 32 0 31 31 VRB 6 9 30.15 1021 10 16 0.00 0.00
3:51 pm 15:51 Sunny 63 17.2 33 0.6 33 33 S 6 9 30.15 1021 10 16 0.00 0.00
4:51 pm 16:51 Sunny 60 15.6 32 0 35 35 SE 9 15 30.16 1021 10 16 0.00 0.00
5:51 pm 17:51 Clear 55 12.8 33 0.6 44 44 ESE 9 15 30.19 1022 10 16 0.00 0.00
6:51 pm 18:51 Clear 51 10.6 33 0.6 50 50 ESE 8 13 30.22 1023 10 16 0.00 0.00
7:51 pm 19:51 Clear 52 11.1 33 0.6 49 49 ESE 7 11 30.24 1024 10 16 0.00 0.00
8:51 pm 20:51 Clear 49 9.4 33 0.6 55 55 SSE 9 15 30.26 1025 10 16 0.00 0.00
9:51 pm 21:51 Clear 48 8.9 32 0 54 54 SE 10 17 30.26 1025 10 16 0.00 0.00
10:51 pm 22:51 Clear 45 7.2 32 0 61 61 ESE 9 15 30.27 1025 10 16 0.00 0.00
11:51 pm 23:51 Clear 45 7.2 32 0 61 61 ESE 10 17 30.28 1025 10 16 0.00 0.00

Powered by AerisWeather